Powrót do katalogu

STARLINK-36226

AktywnyŁącznośćVLEO
NORAD 67209·PAYLOAD·🇺🇸 United States

Wystrzelony Dec 17, 2025 z Vandenberg Space Force Base

Loading…

Następne Przeloty (najbliższe 24 godziny)

TLE

ŚwieżeSource: CelesTrak SupGP

Epoka: Sep 15, 2026, 04:16 UTC

1 67209C 25304T   26258.17826389 -.00006938  00000+0 -58150-3 0  2582
2 67209  70.0009  56.8900 0003201 259.8181  82.5438 14.98328091    16

Śledź STARLINK-36226 w czasie rzeczywistym z AllMySat

Download on the App Store